Hors Challenge

Le Lampiris Averbode Nature Trail à Averbode (28.00 km)

samedi 06 octobre 2018

Le Classement original se trouve sur : http://www.chronorace.be
 
LE LAMPIRIS AVERBODE NATURE TRAIL
DISTANCE : 27.80 km
samedi 06 octobre 2018
 
Place Dos NOM Catégorie Pl/cat temps temps/km Vitesse
1 2103 ROSSEELS BART SH 1 1:52:56 04:04 14.77
2 2181 LIEVENS TIM SH 2 1:53:15 04:04 14.73
3 2118 VANDENPUTTE STEVEN V1 1 1:53:29 04:05 14.70
4 1197 GOELEN RUBEN SH 3 1:56:42 04:12 14.29
5 2040 BOLSIUS TOM V1 2 2:01:15 04:22 13.76
6 2108 MICHIELS WOUTER V1 3 2:06:05 04:32 13.23
7 2153 BERTELS JEROEN SH 4 2:07:13 04:35 13.11
8 2100 MEYNCKENS PETER SH 5 2:07:24 04:35 13.09
9 2246 SNEYERS KEN SH 6 2:07:56 04:36 13.04
10 2182 DERACOURT MARIO SH 7 2:09:43 04:40 12.86
11 2157 VERBIST DIMITRI SH 8 2:09:43 04:40 12.86
12 2198 CRISTAEL ROEL SH 9 2:09:58 04:40 12.83
13 2049 VAN WIELE PETER V1 4 2:10:25 04:41 12.79
14 2179 BIJNS TOM V1 5 2:10:49 04:42 12.75
15 2010 LAENEN JELLE SH 10 2:11:24 04:44 12.69
16 2087 DOMEN TOM V1 6 2:13:08 04:47 12.53
17 2120 JANSSENS BART V1 7 2:13:14 04:48 12.52
18 2030 PEETERS BJÖRN SH 11 2:13:22 04:48 12.51
19 2035 VAN DEN HENDE GUNTHER V1 8 2:15:25 04:52 12.32
20 2161 ERNEST JACK V2 1 2:15:30 04:52 12.31
21 2096 DAS BERT V1 9 2:15:51 04:53 12.28
22 2226 STONNE VANDEWEYER V3 1 2:15:51 04:53 12.28
23 2107 SEGERS RUDI V2 2 2:16:35 04:55 12.21
24 2200 DU BOIS MICHAËL V1 10 2:19:19 05:01 11.97
25 2199 VIDALI MARZIO V1 11 2:19:33 05:01 11.95
26 2231 COEMANS MAARTEN SH 12 2:19:38 05:01 11.95
27 2094 BROUWERS JORIS SH 13 2:19:55 05:02 11.92
28 2194 MEERSCHAUT MARIO V1 12 2:20:10 05:03 11.90
29 2090 OEYEN DIRK V1 13 2:20:27 05:03 11.88
30 2089 VAN HISSENHOVEN THIBAUD SH 14 2:21:05 05:04 11.82
31 2111 KELLENS RUBEN SH 15 2:21:58 05:06 11.75
32 2034 VAN ROOY KRISTOF SH 16 2:23:13 05:09 11.65
33 2196 VALERIE VAN DER VEEKEN A2 1 2:23:33 05:10 11.62
34 2204 DUMORTIER SVEN V1 14 2:23:47 05:10 11.60
35 2123 GILIS EMIEL V1 15 2:24:34 05:12 11.54
36 2145 VANMEENSEL KIM SH 17 2:25:11 05:13 11.49
37 2113 VAN CAENEGHEM WIM V2 3 2:25:14 05:13 11.49
38 2011 FLEURBAEY KAREL JAN SH 18 2:25:53 05:15 11.43
39 2023 NR 2023 XXX   2:26:04 05:15 11.42
40 2004 RICHARD SÉBASTIEN V1 16 2:26:11 05:15 11.41
41 2082 DE VAUCLEROY LÉOPOLD SH 19 2:26:15 05:16 11.41
42 2158 VAN OS DANIÈLE SD 1 2:26:21 05:16 11.40
43 2029 BROEKMANS GREG SH 20 2:26:24 05:16 11.39
44 2170 BELLINCKX JORIS SH 21 2:26:36 05:16 11.38
45 2080 VERSTRAELEN HANNE SD 2 2:27:11 05:18 11.33
46 2174 HONRAET KRIS V1 17 2:28:35 05:21 11.23
47 2134 LEJEUNE SIMON SH 22 2:28:35 05:21 11.23
48 2055 VERDUYN KURT V2 4 2:29:46 05:23 11.14
49 2110 LEFIEF ANN A1 1 2:29:47 05:23 11.14
50 2183 WAEYAERT TOM V1 18 2:30:26 05:25 11.09
51 2044 STRYCKMANS GIL SH 23 2:30:30 05:25 11.08
52 2197 MERMANS MARIJN SH 24 2:30:55 05:26 11.05
53 2195 DROOGMANS BJORN V1 19 2:31:44 05:27 10.99
54 2052 BROUX TOM SH 25 2:32:10 05:28 10.96
55 2042 ROBEYNS JOHAN V2 5 2:32:18 05:29 10.95
56 2130 VH JOACHIM SH 26 2:32:29 05:29 10.94
57 2159 VOSSEN BART SH 27 2:32:34 05:29 10.93
58 2155 BOOGAERTS PIETER SH 28 2:32:41 05:30 10.92
59 2119 ROETS ERIC V1 20 2:33:26 05:31 10.87
60 2001 DEWEL KOEN SH 29 2:33:34 05:31 10.86
61 2207 VANCORENLAND KOEN V1 21 2:34:18 05:33 10.81
62 2189 ROBYN TOM V1 22 2:34:27 05:33 10.80
63 2209 NR 2209 XXX   2:34:45 05:34 10.78
64 2106 DIELTJENS TOM V1 23 2:34:49 05:34 10.77
65 2151 DE RORE GEERT SH 30 2:35:04 05:35 10.76
66 2150 DE RORE KRISTOF SH 31 2:35:05 05:35 10.76
67 2141 WEERTS ERWIN SH 32 2:35:21 05:35 10.74
68 2149 BEIRSMANS IVAN V2 6 2:35:36 05:36 10.72
69 2203 CLAESSENS KRIS V1 24 2:35:52 05:36 10.70
70 2048 KERKHOVE SIMON SH 33 2:36:13 05:37 10.68
71 2139 KAVSE TONY V1 25 2:36:25 05:38 10.66
72 2235 LE GRELLE NICOLAS SH 34 2:36:28 05:38 10.66
73 2247 CAENEN GEERT V1 26 2:36:40 05:38 10.65
74 2115 MAERTEN BART V1 27 2:37:04 05:39 10.62
75 2140 MAES ANITA A1 2 2:37:11 05:39 10.61
76 2097 VAN AS PIETER V1 28 2:37:13 05:39 10.61
77 2210 NR 2210 XXX   2:37:19 05:40 10.60
78 2136 HERMANS STEFAN V1 29 2:37:32 05:40 10.59
79 2202 VANDENABEELE JAN V1 30 2:37:40 05:40 10.58
80 2133 FROYEN GUY V2 7 2:37:53 05:41 10.56
81 2086 BORRENBERGHS DOORTJE SD 3 2:38:03 05:41 10.55
82 2083 DECRETON CÉDRIC V1 31 2:38:14 05:42 10.54
83 2146 VLOEMANS JORIS SH 35 2:38:24 05:42 10.53
84 2165 VAN DESSEL RONNY V2 8 2:39:12 05:44 10.48
85 2013 VAN DER PERRE JAN V1 32 2:39:40 05:45 10.45
86 2056 TEMMERMAN MAXIME SH 36 2:40:31 05:46 10.39
87 2243 WYNANTS JOOST SH 37 2:40:37 05:47 10.39
88 2242 NYS TOM V1 33 2:40:42 05:47 10.38
89 2117 MORREN GEERT V1 34 2:41:27 05:48 10.33
90 2249 BREMS GUNTER V1 35 2:41:35 05:49 10.32
91 2160 BROUWERS K SH 38 2:42:18 05:50 10.28
92 2014 LEYS STEVEN V1 36 2:42:51 05:51 10.24
93 2224 VAN DER VLOET DAVID SH 39 2:43:32 05:53 10.20
94 2144 RAYMAEKERS PIETER SH 40 2:43:32 05:53 10.20
95 2225 DEWIT JASPER SH 41 2:43:33 05:53 10.20
96 2092 DE GEETERE LIEVEN V1 37 2:43:59 05:54 10.17
97 2022 BAK KRISTOF V1 38 2:44:11 05:54 10.16
98 2132 TEMMERMAN JIMMY V1 39 2:44:15 05:54 10.16
99 2122 VAN BEECK KEVIN SH 42 2:44:18 05:55 10.15
100 2239 DELAURE JOHAN V2 9 2:44:41 05:55 10.13
101 2135 FAES PETER V2 10 2:45:01 05:56 10.11
102 2058 VERSTRAETE JORIS V2 11 2:45:07 05:56 10.10
103 2171 NUYENS FILIP V1 40 2:45:23 05:57 10.09
104 2168 WITTENBERG TINO SH 43 2:45:26 05:57 10.08
105 2163 MOMMENS GUY V2 12 2:45:38 05:57 10.07
106 2164 SMOLDERS KEVIN SH 44 2:45:49 05:58 10.06
107 2131 SLACHMUYLDERS MARC V2 13 2:46:12 05:59 10.04
108 2036 LUYCKX WIM V2 14 2:46:13 05:59 10.04
109 2185 MAES BENJAMIN SH 45 2:46:19 05:59 10.03
110 2098 COENEN FREDDY V2 15 2:47:05 06:01 9.98
111 2156 VAN DYCK SANDER SH 46 2:47:26 06:01 9.96
112 2184 BOECKX LIESBET A1 3 2:48:02 06:03 9.93
113 2236 THEUNIS WOUTER SH 47 2:48:04 06:03 9.92
114 2045 VAN BAELEN ROB V2 16 2:48:04 06:03 9.92
115 2208 VLEUGELS PIETER SH 48 2:48:32 06:04 9.90
116 2081 QUINTENS RAF SH 49 2:48:49 06:04 9.88
117 2148 VANPAEMEL JASPER SH 50 2:49:15 06:05 9.86
118 2015 ENGELEN KRIS JOZEF V1 41 2:49:53 06:07 9.82
119 2172 PINTELON KATRIEN A1 4 2:50:06 06:07 9.81
120 2037 VAN DIJCK NICO V1 42 2:50:28 06:08 9.79
121 2025 CLES THOMAS V1 43 2:50:40 06:08 9.77
122 2026 MERTENS DIRK FRANCIS V2 17 2:51:27 06:10 9.73
123 2176 MERTENS TIM SH 51 2:51:29 06:10 9.73
124 2232 VERMEIREN PIETER SH 52 2:52:16 06:12 9.68
125 2039 DIEDENS RAF SH 53 2:52:17 06:12 9.68
126 1245 EYSKENS KOEN SH 54 2:52:27 06:12 9.67
127 2003 BIEMAR DENIS SH 55 2:52:31 06:12 9.67
128 2121 BROECKAERT TOM SH 56 2:52:31 06:12 9.67
129 2114 GODERIS JEAN-PIERRE V2 18 2:52:32 06:12 9.67
130 2143 VAN OSTADE ALEXANDER SH 57 2:52:39 06:13 9.66
131 2124 WITTEVRONGEL LORE SD 4 2:52:55 06:13 9.65
132 2175 VANDELACLUZE STEFAAN V1 44 2:52:59 06:13 9.64
133 2152 MAAS JAN SH 58 2:53:00 06:13 9.64
134 2162 BART LENAERTS V1 45 2:53:02 06:13 9.64
135 2167 HOFFMEISTER WOLFGANG V2 19 2:53:26 06:14 9.62
136 2027 ANTONISSEN DIMITRI V1 46 2:54:11 06:16 9.58
137 2057 VAN HECKEN PIETER SH 59 2:54:58 06:18 9.53
138 2016 MERTENS SVEN V1 47 2:54:59 06:18 9.53
139 2059 VAN MALLEGHEM OLIVIER V2 20 2:55:16 06:18 9.52
140 2078 BELLOC JESSICA SD 5 2:55:28 06:19 9.51
141 2137 NIES RUDY SH 60 2:55:45 06:19 9.49
142 2091 VAN DER WEEËN MARC V3 2 2:56:12 06:20 9.47
143 2190 VERBIEST ROBBY V1 48 2:56:21 06:21 9.46
144 2147 IWENS PETER V2 21 2:56:41 06:21 9.44
145 2088 JANSSENS CHANTAL A1 5 2:57:19 06:23 9.41
146 2033 VAESEN WERNER V1 49 2:57:20 06:23 9.41
147 2127 VERELLEN BART V1 50 2:57:43 06:24 9.39
148 2085 VERVAEKE ELS A1 6 2:57:43 06:24 9.39
149 2104 LOMMELEN RUDY V2 22 3:00:35 06:30 9.24
150 2105 COPS NADIA A1 7 3:00:36 06:30 9.24
151 2187 VAN HAM ROBERT V3 3 3:04:53 06:39 9.02
152 2186 DE RUIJTER ELISABETH A2 2 3:04:54 06:39 9.02
153 2009 SCHELLEKENS TOM V1 51 3:05:17 06:40 9.00
154 2125 STEVENS DAVID V1 52 3:05:46 06:41 8.98
155 2142 SANNEN YVES SH 61 3:06:10 06:42 8.96
156 2193 VAN DEN BERGHE SOPHIE SD 6 3:07:10 06:44 8.91
157 2178 LAEREMANS KARIN A1 8 3:07:29 06:45 8.90
158 2241 VAN BAUWEL CAROLINE SD 7 3:07:39 06:45 8.89
159 2240 KIEBOOMS VEERLE A2 3 3:07:40 06:45 8.89
160 2188 COLMAN GUY V2 23 3:07:43 06:45 8.89
161 2177 MERTENS KAREL V3 4 3:08:06 06:46 8.87
162 2038 FILIP VAN DEN BRANDE V1 53 3:08:17 06:46 8.86
163 2112 DE ROOZE DIMITRI V1 54 3:08:44 06:47 8.84
164 2102 DE VOS BRUNO V1 55 3:08:47 06:47 8.84
165 2128 MICHIELSEN LUCIEN V2 24 3:08:51 06:48 8.83
166 2173 HAUTEKIET BRUNO V3 5 3:08:52 06:48 8.83
167 2245 CATTOOR NELE SD 8 3:10:25 06:51 8.76
168 2244 VERLINDEN ELS SD 9 3:10:26 06:51 8.76
169 2093 SCHUERMAN PATRICK V3 6 3:10:47 06:52 8.74
170 2018 GOYVAERTS TIJL SH 62 3:10:50 06:52 8.74
171 2180 PUYDUPIN SOPHIE SD 10 3:10:54 06:52 8.74
172 2101 VAN DEN BRANDE TIM SH 63 3:11:07 06:52 8.73
173 2138 VAN ELST VICTORIA SD 11 3:11:20 06:53 8.72
174 2050 SWINNEN HANS SH 64 3:11:21 06:53 8.72
175 2084 STEVINS CEDRIC V1 56 3:12:23 06:55 8.67
176 2169 VAN HEES NADY SD 12 3:12:24 06:55 8.67
177 2095 BERVOETS MARISKA SD 13 3:12:41 06:56 8.66
178 2227 FLORIZOONE PETRA A2 4 3:12:48 06:56 8.65
179 2043 VOLDERS DAVY V1 57 3:13:06 06:57 8.64
180 2234 HACOUR HILDE A2 5 3:13:07 06:57 8.64
181 2233 STUBBERS MICHAELA A1 9 3:13:08 06:57 8.64
182 2205 TAVERNIER LUC V2 25 3:14:53 07:01 8.56
183 2206 KIEBOOMS JAN V2 26 3:14:54 07:01 8.56
184 2047 HUYGELBERGHS VALERIE SD 14 3:19:42 07:11 8.35
185 2046 BAL GLEN SH 65 3:19:43 07:11 8.35
186 2024 VAN OSSELAER DIRK MARIA V2 27 3:19:48 07:11 8.35
187 2020 VAN DE LAER TIM V1 58 3:19:59 07:12 8.34
188 2129 GOOSSENS MICHAËL SH 66 3:20:13 07:12 8.33
189 2028 VAN HOUDT GUNTHER V1 59 3:21:07 07:14 8.29
190 2054 CORNET JULIEN SH 67 3:26:30 07:26 8.08
191 2053 STEINLAGE MOLLY SD 15 3:26:32 07:26 8.08
192 2191 LIU XUAN A1 10 3:28:17 07:30 8.01
193 2109 SCHAEKERS MAUREEN SD 16 3:28:18 07:30 8.01
194 2041 REY NANCY A1 11 3:28:27 07:30 8.00
195 2201 VAN EECKHOUT INGRID A1 12 3:30:13 07:34 7.93
196 2192 VERDOODT BART V2 28 3:30:14 07:34 7.93
197 2021 VAN DE LOOCK KOEN SH 68 3:31:26 07:36 7.89
198 2166 GEETS BART V1 60 3:31:37 07:37 7.88
199 2154 GILLES DOMINIQUE V3 7 3:32:09 07:38 7.86
200 2079 VAN GELDER JOHAN V2 29 3:33:10 07:40 7.82
201 2228 SCHEERS FRANK V1 61 3:34:54 07:44 7.76
202 2060 TRITSMANS ALEX V2 30 3:37:21 07:49 7.67
203 2230 VAN HAEREN INGE A1 13 3:43:40 08:03 7.46
204 2017 CLAEYS PHILIPPE MARIE V2 31 3:47:37 08:11 7.33
205 2229 VAN HOEYDONCK NADINE A1 14 3:48:46 08:14 7.29
206 2126 ROGGEN ANNE A2 6 3:54:21 08:26 7.12
207 2031 DEN TROOSTER GEERT V1 62 4:02:26 08:43 6.88